Weather in Philadelphia

United States     39˚57′04″N   75˚09′50″W
temp.,
°C
wind,
m/s
gust,
m/s
humid.,
%
clouds,
%
prec.,
mm/h
press.,
hPa
HPBL,
m
28 november, sat
sat2801:00+11˚nnw246382 0.0 1015343
04:00+11˚wsw116680 0.0 101630
07:00+10˚nw366490 0.0 1016539
10:00+12˚wnw365633 0.0 1017719
13:00+13˚wnw584921 0.0 10161626
16:00+12˚nw584876 0.0 10171541
19:00+9˚nw474838 0.0 1019948
22:00+8˚nw37530 0.0 1021479
29 november, sun
sun2901:00+6˚nw35550 0.0 1021356
04:00+6˚w13560 0.0 1022215
07:00+5˚w26590 0.0 1022299
10:00+8˚w24460 0.0 1022413
13:00+11˚wsw35380 0.0 1021763
16:00+11˚sw244433 0.0 1020760
19:00+10˚ssw385748 0.0 1021527
22:00+9˚sse386574 0.0 1020401
30 november, mon
mon3001:00+9˚sse396587 0.0 1017436
04:00+10˚se31067100 0.0 1015407
07:00+11˚ese31281100 0.2 1011588
10:00+13˚se61791100 1.8 10051211
13:00+15˚sse81791100 14.7 998989
16:00+15˚s3109899 0.6 996417
19:00+14˚ssw289882 1.3 998320
22:00+12˚w268138 0.1 999356
1 december, tue
tue101:00+10˚wnw137430 0.1 998204
04:00+11˚wsw137099 0.0 998198
07:00+10˚w1273100 0.0 997207
10:00+9˚wsw588371 2.8 997744
13:00+7˚wsw7118185 4.5 998911
16:00+7˚wsw7135599 0.7 10011657
19:00+5˚wsw7135394 0.7 10061417
22:00+3˚wsw6125410 0.0 10091210
2 december, wed
wed201:00+3˚wsw6125517 0.0 10111124
04:00+3˚wsw6115335 0.0 10131090
07:00+3˚wsw6105218 0.0 10151019
10:00+4˚wsw6104519 0.0 10171018
13:00+6˚wsw610439 0.0 10171158
16:00+6˚wsw511450 0.0 10181210
19:00+6˚wsw512400 0.0 10211142
22:00+5˚w512420 0.0 10221057